Location: Unspecified
(0.0000°N, 0.0000°E)
Time: 20:19:52
(UTC+00:00)

deb Kosmos-1275 - Pass Details

Date: 07 March 2026
Orbit: 924 x 994 km, 82.9° (Epoch: 11 April)

Event Time Altitude Azimuth Distance (km) Brightness Sun altitude
Rises 05:41:36 0° 148° (SSE) 3,654 ? -7.3°
Reaches altitude 10° 05:45:27 10° 125° (SE) 2,688 ? -6.4°
Maximum altitude 05:48:34 14° 94° (E) 2,370 ? -5.6°
Drops below altitude 10° 05:51:39 10° 63° (ENE) 2,659 ? -4.8°
Sets 05:55:23 0° 39° (NE) 3,586 ? -3.9°
